Location: Unspecified
(51.6250°N, 0.8230°E)
Time: 06:22:51
(UTC+01:00)

Intercosmos 25 - Visible Passes

Search period start: 27 May 2018 00:00
Search period end: 06 June 2018 00:00
Orbit: 439 x 2879 km, 82.6° (Epoch: 26 May)

Date Brightness Start Highest point End Pass type
(mag) Time Alt. Az. Time Alt. Az. Time Alt. Az.
27 May 3.4 23:48:25 21° SSW 23:50:49 64° WNW 23:54:04 10° N visible
28 May 3.4 23:43:00 20° SSW 23:45:30 61° W 23:48:42 10° N visible
29 May 3.4 23:37:33 18° SSW 23:40:12 59° WNW 23:43:23 10° N visible
30 May 3.5 23:32:06 16° SSW 23:34:52 57° WNW 23:38:02 10° N visible
31 May 3.5 23:26:38 14° SSW 23:29:33 55° WNW 23:32:42 10° N visible
01 Jun 3.6 23:21:08 12° SSW 23:24:14 53° WNW 23:27:23 10° N visible
02 Jun 3.6 23:15:36 11° SSW 23:18:55 52° WNW 23:22:04 10° N visible
03 Jun 3.7 23:10:16 10° SSW 23:13:36 50° WNW 23:16:46 10° N visible
04 Jun 3.7 23:05:01 10° SSW 23:08:17 48° WNW 23:11:28 10° N visible
05 Jun 3.8 22:59:45 10° SSW 23:02:58 47° WNW 23:06:10 10° N visible
